Regional Weather Roundup
Issued by NWS

Home | Current Version | Previous Version | Graphics & Text | Print | Product List | Glossary On
Versions: 1 2 3 4 5 6 7 8 9 10 11 12 13 14 15 16 17 18 19 20 21 22 23 24 25 26 27 28 29 30 31 32 33 34 35 36 37 38 39 40 41 42 43 44 45 46 47 48 49 50
000
ASUS43 KBIS 220810
RWRND

NORTH DAKOTA REGIONAL WEATHER ROUNDUP
NATIONAL WEATHER SERVICE BISMARCK ND
300 AM CDT SUN OCT 22 2017

NOTE: "FAIR" INDICATES FEW OR NO CLOUDS BELOW 12,000 FEET WITH NO
SIGNIFICANT WEATHER AND/OR OBSTRUCTIONS TO VISIBILITY.


NDZ001>003-009>011-017-220900-
NORTHWEST NORTH DAKOTA

CITY           SKY/WX    TMP DP  RH WIND       PRES   REMARKS
WILLISTON      CLEAR     36  25  64 SW8       29.81S
MINOT          CLEAR     40  29  64 SW13      29.76R
MINOT AFB      CLEAR     36  29  75 W9        29.74R
$$

NDZ018>021-031>035-040>046-220900-
SOUTHWEST NORTH DAKOTA

CITY           SKY/WX    TMP DP  RH WIND       PRES   REMARKS
BISMARCK       CLEAR     37  28  70 W5        29.85R
DICKINSON      CLEAR     35  23  61 SW12      29.85R
GARRISON         N/A     36  30  79 W12       29.80R
HETTINGER ARPT CLEAR     29  20  69 NW3       29.92S
$$

NDZ004>008-012>016-024-026-027-054-220900-
NORTHEAST NORTH DAKOTA

CITY           SKY/WX    TMP DP  RH WIND       PRES   REMARKS
GRAND FORKS    CLOUDY    49  39  68 SW12      29.72R
GRND FRKS AFB  MOCLDY    47  37  69 W9        29.71R
DEVILS LAKE    CLEAR     44  35  70 W20       29.73R
$$

NDZ022-023-025-028>030-036>039-047>053-220900-
SOUTHEAST NORTH DAKOTA

CITY           SKY/WX    TMP DP  RH WIND       PRES   REMARKS
FARGO          PTCLDY    46  38  73 SW12      29.80R
JAMESTOWN      CLEAR     42  34  73 SW10      29.80R
$$





USA.gov is the U.S. government's official web portal to all federal, state and local government web resources and services.